Location: Arclight Observatory
(36.5667°N, 87.3333°W)
Time: 06:38:15
(UTC-05:00)

Hubble Space Telescope - Visible Passes

Search period start: 01 July 2016 00:00
Search period end: 11 July 2016 00:00
Orbit: 539 x 543 km, 28.5° (Epoch: 30 June)

Date Brightness Start Highest point End Pass type
(mag) Time Alt. Az. Time Alt. Az. Time Alt. Az.
01 Jul 2.1 21:52:11 10° SW 21:54:58 24° S 21:54:58 24° S visible
02 Jul 1.9 21:42:19 10° SW 21:45:47 26° S 21:46:01 25° S visible
03 Jul 1.9 21:32:32 10° SW 21:36:01 26° S 21:36:57 24° SSE visible
04 Jul 1.9 21:22:46 10° WSW 21:26:15 26° S 21:27:46 21° SSE visible
05 Jul 2.0 21:13:01 10° WSW 21:16:29 26° S 21:18:30 18° SE visible
06 Jul 2.1 21:03:19 10° WSW 21:06:42 24° S 21:09:12 15° SE visible
07 Jul 2.2 20:53:39 10° WSW 20:56:56 23° S 20:59:52 12° SE visible
08 Jul 2.4 20:44:01 10° WSW 20:47:09 21° SSW 20:50:16 10° SE visible
09 Jul 2.6 20:34:27 10° WSW 20:37:22 18° SSW 20:40:15 10° SSE visible
